Weather History for Keene, NH

Change the Weather History Date:

Monday, May 27, 2013

  Actual Average Record
Temperature  
Mean Temperature - -  
Max Temperature - 73 °F 92 °F (1944)
Min Temperature - 43 °F 28 °F (1969)
Moisture  
Dew Point -    
Average Humidity    
Maximum Humidity    
Minimum Humidity    
Precipitation  
Precipitation 0.00 in - - ()
Sea Level Pressure  
Sea Level Pressure 30.14 in    
Wind  
Wind Speed 3 mph (NW)    
Max Wind Speed 18 mph    
Max Gust Speed 26 mph    
Visibility 8 miles    
Events      
Averages and records for this station are not official NWS values.
T = Trace of Precipitation, MM = Missing Value Source: NWS Daily Summary

Daily Weather History Graph

Daily Weather History Graph

Search for Another Location

Airport:

Trip Planner

Search our weather history database for the weather conditions in past years. The results will help you decide how hot, cold, wet, or windy it might be!

Date:

Astronomy

May. 27, 2013 Rise Set
Actual Time 5:15 AM EDT 8:17 PM EDT
Civil Twilight 4:41 AM EDT 8:51 PM EDT
Nautical Twilight 3:58 AM EDT 9:34 PM EDT
Astronomical Twilight 3:07 AM EDT 10:26 PM EDT
Moon 10:52 PM EDT (5/27) 7:50 AM EDT (5/27)
Length of Visible Light 16h 09m
Length of Day
15h 01m
Waning Gibbous, 91% of the Moon is Illuminated
May 27
Waning Gibbous
May 31
Last Quarter
Jun 8
New
Jun 16
First Quarter
Jun 23
Full

Hourly Weather History & Observations

Time (EDT) Temp. Dew Point Humidity Pressure Visibility Wind Dir Wind Speed Gust Speed Precip Events Conditions
12:15 AM - - N/A% 30.12 in 10.0 mi Calm Calm - N/A   Clear
12:35 AM - - N/A% 30.12 in 10.0 mi Calm Calm - N/A   Clear
12:55 AM - - N/A% 30.13 in 3.0 mi Calm Calm - N/A   Clear
1:15 AM - - N/A% 30.12 in 1.0 mi Calm Calm - N/A   Clear
1:35 AM - - N/A% 30.12 in 10.0 mi Calm Calm - N/A   Clear
1:55 AM - - N/A% 30.12 in 3.0 mi Calm Calm - N/A   Clear
2:15 AM - - N/A% 30.11 in 10.0 mi Calm Calm - N/A   Mostly Cloudy
2:35 AM - - N/A% 30.11 in 2.5 mi Calm Calm - N/A   Overcast
2:55 AM - - N/A% 30.12 in 0.8 mi Calm Calm - N/A   Overcast
3:35 AM - - N/A% 30.12 in 0.2 mi Calm Calm - N/A   Overcast
3:55 AM - - N/A% 30.12 in 0.2 mi Calm Calm - N/A   Overcast
4:15 AM - - N/A% 30.12 in 0.2 mi Calm Calm - N/A   Overcast
4:35 AM - - N/A% 30.13 in 0.2 mi Calm Calm - N/A   Overcast
4:55 AM - - N/A% 30.13 in 0.2 mi Calm Calm - N/A   Overcast
5:15 AM - - N/A% 30.14 in 0.5 mi North 3.5 mph - N/A   Overcast
5:35 AM - - N/A% 30.15 in 0.5 mi Calm Calm - N/A   Overcast
5:55 AM - - N/A% 30.16 in 2.0 mi North 3.5 mph - N/A   Overcast
6:15 AM - - N/A% 30.16 in 0.2 mi Calm Calm - N/A   Overcast
6:35 AM - - N/A% 30.16 in 0.2 mi Calm Calm - N/A   Overcast
6:55 AM - - N/A% 30.17 in 0.5 mi Calm Calm - N/A   Overcast
7:15 AM - - N/A% 30.17 in 2.0 mi Calm Calm - N/A   Overcast
7:35 AM - - N/A% 30.17 in 0.5 mi Calm Calm - N/A   Overcast
7:55 AM - - N/A% 30.17 in 2.0 mi Calm Calm - N/A   Overcast
8:15 AM - - N/A% 30.17 in 10.0 mi Calm Calm - N/A   Mostly Cloudy
8:36 AM - - N/A% 30.17 in 10.0 mi Calm Calm - N/A   Clear
8:55 AM - - N/A% 30.17 in 10.0 mi Calm Calm - N/A   Clear
9:15 AM - - N/A% 30.17 in 10.0 mi Calm Calm - N/A   Clear
9:35 AM - - N/A% 30.17 in 10.0 mi Calm Calm - N/A   Clear
9:55 AM - - N/A% 30.16 in 10.0 mi Calm Calm - N/A   Clear
10:15 AM - - N/A% 30.16 in 10.0 mi West 3.5 mph - N/A   Clear
10:35 AM - - N/A% 30.15 in 10.0 mi NNW 9.2 mph 16.1 mph N/A   Clear
10:55 AM - - N/A% 30.15 in 10.0 mi NNW 12.7 mph 25.3 mph N/A   Clear
11:15 AM - - N/A% 30.14 in 10.0 mi NNW 10.4 mph 18.4 mph N/A   Clear
11:35 AM - - N/A% 30.14 in 10.0 mi North 11.5 mph 16.1 mph N/A   Clear
11:55 AM - - N/A% 30.14 in 10.0 mi NNW 15.0 mph - N/A   Clear
12:15 PM - - N/A% 30.14 in 10.0 mi NNW 15.0 mph 20.7 mph N/A   Clear
12:35 PM - - N/A% 30.13 in 10.0 mi NW 11.5 mph 19.6 mph N/A   Clear
12:55 PM - - N/A% 30.13 in 10.0 mi NNW 12.7 mph 18.4 mph N/A   Clear
1:15 PM - - N/A% 30.12 in 10.0 mi Calm Calm - N/A   Clear
1:35 PM - - N/A% 30.12 in 10.0 mi NNW 9.2 mph - N/A   Clear
1:55 PM - - N/A% 30.11 in 10.0 mi West 8.1 mph - N/A   Clear
2:15 PM - - N/A% 30.11 in 10.0 mi WNW 6.9 mph 17.3 mph N/A   Clear
2:35 PM - - N/A% 30.11 in 10.0 mi West 18.4 mph 26.5 mph N/A   Clear
2:55 PM - - N/A% 30.11 in 10.0 mi North 11.5 mph 16.1 mph N/A   Clear
3:15 PM - - N/A% 30.11 in 10.0 mi NNW 11.5 mph 17.3 mph N/A   Clear
3:35 PM - - N/A% 30.11 in 10.0 mi NW 10.4 mph - N/A   Clear
3:55 PM - - N/A% 30.10 in 10.0 mi WNW 10.4 mph 17.3 mph N/A   Clear
4:15 PM - - N/A% 30.10 in 10.0 mi North 6.9 mph 20.7 mph N/A   Clear
4:35 PM - - N/A% 30.10 in 10.0 mi WNW 8.1 mph 18.4 mph N/A   Clear
4:55 PM - - N/A% 30.10 in 10.0 mi NW 8.1 mph 17.3 mph N/A   Clear
5:15 PM - - N/A% 30.10 in 10.0 mi WNW 4.6 mph 18.4 mph N/A   Clear
5:35 PM - - N/A% 30.10 in 10.0 mi NNW 8.1 mph - N/A   Clear
5:55 PM - - N/A% 30.09 in 10.0 mi NW 9.2 mph - N/A   Clear
6:15 PM - - N/A% 30.10 in 10.0 mi NW 6.9 mph - N/A   Clear
6:35 PM - - N/A% 30.10 in 10.0 mi NW 6.9 mph - N/A   Clear
6:55 PM - - N/A% 30.10 in 10.0 mi NNW 4.6 mph - N/A   Clear
7:15 PM - - N/A% 30.11 in 10.0 mi NNW 4.6 mph - N/A   Clear
7:35 PM - - N/A% 30.11 in 10.0 mi Calm Calm - N/A   Clear
7:55 PM - - N/A% 30.12 in 10.0 mi Calm Calm - N/A   Clear
8:15 PM - - N/A% 30.12 in 10.0 mi Calm Calm - N/A   Clear
8:35 PM - - N/A% 30.13 in 10.0 mi Calm Calm - N/A   Clear
8:55 PM - - N/A% 30.14 in 10.0 mi SW 3.5 mph - N/A   Clear
9:15 PM - - N/A% 30.15 in 7.0 mi Calm Calm - N/A   Clear
9:35 PM - - N/A% 30.16 in 10.0 mi Calm Calm - N/A   Clear
9:55 PM - - N/A% 30.16 in 10.0 mi Calm Calm - N/A   Clear
10:15 PM - - N/A% 30.17 in 10.0 mi Calm Calm - N/A   Clear
10:35 PM - - N/A% 30.17 in 10.0 mi Calm Calm - N/A   Clear
10:55 PM - - N/A% 30.18 in 10.0 mi Calm Calm - N/A   Clear
11:15 PM - - N/A% 30.19 in 10.0 mi Calm Calm - N/A   Clear
11:35 PM - - N/A% 30.19 in 10.0 mi Calm Calm - N/A   Clear
11:55 PM - - N/A% 30.20 in 10.0 mi Calm Calm - N/A   Clear